JBU939 KJFK-MMSD

Flight info

Callsign JBU939
Flight time N/A
Altitude 30000
Route RBV Q430 COPES Q75 GVE DCT LYH DCT COLZI DCT ODF DCT RMG DCT JAMMR DCT MERDN DCT LCH DCT VUH DCT PSX DCT LRD J22 NLD DCT MURDU DCT NAPDA UJ10 ENEKO
Aircraft A21N/M-SDE2E3FGHIRWXY/LB1

Departure

Time 2026-05-08 09:18
Airport John F. Kennedy International Airport (KJFK)

Arrival

Time N/A
Airport Los Cabos International Airport (MMSD)
Time Latitude Longitude Altitude Speed Heading
2026-05-08 08:33 40.64674 -73.77533 21 ft 0 kts 238°
2026-05-08 09:09 40.64680 -73.77520 21 ft 2 kts 228°
2026-05-08 09:09 40.64691 -73.77507 21 ft 2 kts 213°
2026-05-08 09:09 40.64704 -73.77496 21 ft 2 kts 214°
2026-05-08 09:09 40.64718 -73.77491 21 ft 2 kts 172°
2026-05-08 09:10 40.64732 -73.77499 21 ft 2 kts 140°
2026-05-08 09:10 40.64739 -73.77509 21 ft 0 kts 120°
2026-05-08 09:12 40.64739 -73.77508 21 ft 1 kts 120°
2026-05-08 09:12 40.64720 -73.77465 21 ft 9 kts 115°
2026-05-08 09:12 40.64770 -73.77354 21 ft 18 kts 25°
2026-05-08 09:12 40.64843 -73.77254 21 ft 15 kts 113°
2026-05-08 09:13 40.64789 -73.77127 21 ft 16 kts 120°
2026-05-08 09:13 40.64706 -73.77019 21 ft 17 kts 152°
2026-05-08 09:13 40.64581 -73.76986 21 ft 19 kts 181°
2026-05-08 09:13 40.64440 -73.76995 21 ft 20 kts 191°
2026-05-08 09:14 40.64309 -73.77082 21 ft 21 kts 211°
2026-05-08 09:14 40.64173 -73.77187 21 ft 22 kts 210°
2026-05-08 09:14 40.64034 -73.77296 21 ft 23 kts 210°
2026-05-08 09:14 40.63889 -73.77412 21 ft 24 kts 212°
2026-05-08 09:15 40.63741 -73.77527 21 ft 24 kts 211°
2026-05-08 09:15 40.63633 -73.77576 21 ft 13 kts 146°
2026-05-08 09:15 40.63579 -73.77470 21 ft 14 kts 120°
2026-05-08 09:15 40.63528 -73.77358 21 ft 14 kts 121°
2026-05-08 09:16 40.63473 -73.77238 21 ft 16 kts 121°
2026-05-08 09:16 40.63410 -73.77098 21 ft 19 kts 120°
2026-05-08 09:16 40.63332 -73.76952 21 ft 19 kts 155°
2026-05-08 09:16 40.63199 -73.76948 21 ft 19 kts 181°
2026-05-08 09:17 40.63067 -73.76993 21 ft 20 kts 206°
2026-05-08 09:17 40.62943 -73.77088 21 ft 20 kts 211°
2026-05-08 09:17 40.62828 -73.77181 21 ft 13 kts 226°
2026-05-08 09:17 40.62854 -73.77296 21 ft 26 kts 301°
2026-05-08 09:18 40.63076 -73.77785 21 ft 96 kts 301°
2026-05-08 09:18 40.63522 -73.78767 21 ft 153 kts 301°
2026-05-08 09:18 40.64115 -73.80096 321 ft 174 kts 303°
2026-05-08 09:18 40.64616 -73.81537 930 ft 180 kts 278°
2026-05-08 09:19 40.64292 -73.83140 1577 ft 187 kts 242°
2026-05-08 09:19 40.63470 -73.84480 2123 ft 195 kts 223°
2026-05-08 09:19 40.62353 -73.85613 2412 ft 209 kts 214°
2026-05-08 09:19 40.61056 -73.86582 2692 ft 222 kts 209°
2026-05-08 09:20 40.59628 -73.87585 2913 ft 241 kts 209°
2026-05-08 09:20 40.58126 -73.88641 3210 ft 255 kts 209°
2026-05-08 09:20 40.56501 -73.89771 3575 ft 268 kts 210°
2026-05-08 09:20 40.54952 -73.91116 4194 ft 266 kts 229°
2026-05-08 09:21 40.53819 -73.92948 4922 ft 261 kts 236°
2026-05-08 09:21 40.52713 -73.94822 5603 ft 260 kts 236°
2026-05-08 09:22 40.45974 -74.06242 9394 ft 266 kts 237°
2026-05-08 09:23 40.44849 -74.08136 9998 ft 267 kts 237°
2026-05-08 09:23 40.43711 -74.10077 10436 ft 274 kts 237°
2026-05-08 09:23 40.42518 -74.12093 10667 ft 286 kts 237°
2026-05-08 09:23 40.41263 -74.14208 10925 ft 298 kts 237°
2026-05-08 09:24 40.39962 -74.16404 11165 ft 309 kts 237°
2026-05-08 09:24 40.38625 -74.18658 11384 ft 321 kts 237°
2026-05-08 09:24 40.37231 -74.21012 11695 ft 330 kts 236°
2026-05-08 09:24 40.35825 -74.23389 12142 ft 333 kts 236°
2026-05-08 09:25 40.34387 -74.25769 12713 ft 334 kts 237°
2026-05-08 09:25 40.32945 -74.28150 13251 ft 335 kts 238°
2026-05-08 09:25 40.31511 -74.30575 13778 ft 336 kts 238°
2026-05-08 09:25 40.30069 -74.32992 14252 ft 339 kts 238°
2026-05-08 09:26 40.28626 -74.35419 14758 ft 339 kts 238°
2026-05-08 09:26 40.27174 -74.37861 15233 ft 341 kts 238°
2026-05-08 09:26 40.25695 -74.40321 15699 ft 341 kts 238°
2026-05-08 09:26 40.24255 -74.42738 16177 ft 343 kts 238°
2026-05-08 09:27 40.22779 -74.45216 16604 ft 345 kts 238°
2026-05-08 09:27 40.21393 -74.47779 16990 ft 341 kts 245°
2026-05-08 09:27 40.20450 -74.50570 17411 ft 336 kts 256°
2026-05-08 09:27 40.19938 -74.53508 17847 ft 334 kts 264°
2026-05-08 09:28 40.19677 -74.56558 18209 ft 335 kts 266°
2026-05-08 09:28 40.19439 -74.59586 18588 ft 337 kts 266°
2026-05-08 09:28 40.19205 -74.62615 18783 ft 343 kts 266°
2026-05-08 09:28 40.18959 -74.65760 19057 ft 347 kts 266°
2026-05-08 09:29 40.18711 -74.68881 19442 ft 346 kts 266°
2026-05-08 09:29 40.18464 -74.72015 19825 ft 347 kts 266°
2026-05-08 09:29 40.18216 -74.75129 20201 ft 348 kts 266°
2026-05-08 09:29 40.17968 -74.78282 20552 ft 349 kts 266°
2026-05-08 09:30 40.17717 -74.81418 20889 ft 349 kts 265°
2026-05-08 09:30 40.17462 -74.84582 21236 ft 350 kts 266°
2026-05-08 09:30 40.17207 -74.87734 21529 ft 351 kts 266°
2026-05-08 09:30 40.16948 -74.90942 21704 ft 355 kts 266°
2026-05-08 09:31 40.16686 -74.94156 21972 ft 357 kts 266°
2026-05-08 09:31 40.16425 -74.97367 22285 ft 357 kts 266°
2026-05-08 09:31 40.16161 -75.00602 22585 ft 358 kts 266°
2026-05-08 09:31 40.15897 -75.03818 22842 ft 359 kts 266°
2026-05-08 09:32 40.15633 -75.07043 23075 ft 359 kts 266°
2026-05-08 09:32 40.15362 -75.10286 23338 ft 359 kts 266°
2026-05-08 09:32 40.15091 -75.13519 23611 ft 360 kts 265°
2026-05-08 09:32 40.14817 -75.16800 23856 ft 361 kts 265°
2026-05-08 09:33 40.14545 -75.20067 24078 ft 361 kts 266°
2026-05-08 09:33 40.14270 -75.23322 24338 ft 361 kts 265°
2026-05-08 09:33 40.13995 -75.26573 24579 ft 361 kts 265°
2026-05-08 09:33 40.13719 -75.29823 24729 ft 364 kts 266°
2026-05-08 09:34 40.13384 -75.33086 24906 ft 366 kts 262°
2026-05-08 09:34 40.12617 -75.36272 25122 ft 372 kts 253°
2026-05-08 09:34 40.11410 -75.39280 25325 ft 379 kts 244°
2026-05-08 09:34 40.09771 -75.42037 25560 ft 387 kts 237°
2026-05-08 09:35 40.07950 -75.44631 25698 ft 389 kts 236°
2026-05-08 09:35 40.06099 -75.47251 25854 ft 391 kts 236°
2026-05-08 09:35 40.04258 -75.49837 26069 ft 391 kts 236°
2026-05-08 09:35 40.02402 -75.52419 26304 ft 389 kts 236°
2026-05-08 09:36 40.00561 -75.54978 26527 ft 388 kts 236°
2026-05-08 09:36 39.98705 -75.57552 26761 ft 387 kts 236°
2026-05-08 09:36 39.96868 -75.60084 27005 ft 386 kts 236°
2026-05-08 09:36 39.95036 -75.62606 27223 ft 385 kts 236°
2026-05-08 09:37 39.93196 -75.65139 27467 ft 384 kts 236°
2026-05-08 09:37 39.91432 -75.67704 27704 ft 381 kts 238°
2026-05-08 09:37 39.89766 -75.70342 27961 ft 378 kts 239°
2026-05-08 09:37 39.88086 -75.73031 28179 ft 378 kts 239°
2026-05-08 09:38 39.86429 -75.75679 28395 ft 378 kts 239°
2026-05-08 09:38 39.84760 -75.78348 28578 ft 379 kts 239°
2026-05-08 09:38 39.83086 -75.81023 28771 ft 379 kts 239°
2026-05-08 09:38 39.81413 -75.83684 28958 ft 380 kts 239°
2026-05-08 09:39 39.79746 -75.86348 29134 ft 381 kts 239°
2026-05-08 09:39 39.78062 -75.89031 29334 ft 381 kts 239°
2026-05-08 09:39 39.76397 -75.91686 29545 ft 381 kts 239°
2026-05-08 09:39 39.74710 -75.94367 29754 ft 381 kts 239°
2026-05-08 09:40 39.73036 -75.97022 29915 ft 381 kts 239°
2026-05-08 09:40 39.69664 -76.02377 29986 ft 383 kts 239°
2026-05-08 09:41 39.66292 -76.07713 29983 ft 383 kts 239°
2026-05-08 09:41 39.62921 -76.13045 29987 ft 384 kts 239°
2026-05-08 09:42 39.59533 -76.18378 29987 ft 384 kts 239°
2026-05-08 09:42 39.56079 -76.23690 29991 ft 384 kts 239°
2026-05-08 09:43 39.52650 -76.28964 29988 ft 383 kts 238°
2026-05-08 09:43 39.49235 -76.34199 29992 ft 382 kts 238°
2026-05-08 09:44 39.45704 -76.39399 30000 ft 388 kts 236°
2026-05-08 09:44 39.41915 -76.44378 30003 ft 388 kts 234°
2026-05-08 09:45 39.38132 -76.49340 30006 ft 388 kts 234°
2026-05-08 09:45 39.34354 -76.54280 30011 ft 387 kts 234°
2026-05-08 09:46 39.30580 -76.59205 30011 ft 387 kts 235°
2026-05-08 09:46 39.26776 -76.64166 30010 ft 388 kts 235°
2026-05-08 09:47 39.22953 -76.69134 30013 ft 390 kts 234°
2026-05-08 09:47 39.19130 -76.74101 30014 ft 388 kts 234°
2026-05-08 09:48 39.15336 -76.79018 30014 ft 389 kts 234°
2026-05-08 09:48 39.11535 -76.83940 30018 ft 389 kts 234°
2026-05-08 09:49 39.07725 -76.88866 30014 ft 388 kts 234°
2026-05-08 09:49 39.03921 -76.93779 30021 ft 388 kts 234°
2026-05-08 09:50 39.00120 -76.98672 30028 ft 387 kts 234°
2026-05-08 09:50 38.96329 -77.03548 30013 ft 387 kts 234°
2026-05-08 09:51 38.92526 -77.08424 30005 ft 387 kts 235°
2026-05-08 09:51 38.88718 -77.13330 30007 ft 388 kts 234°
2026-05-08 09:52 38.84914 -77.18211 30020 ft 387 kts 234°
2026-05-08 09:52 38.81114 -77.23076 30010 ft 386 kts 234°
2026-05-08 09:53 38.77306 -77.27942 30002 ft 386 kts 234°
2026-05-08 09:53 38.73507 -77.32774 30008 ft 388 kts 233°
2026-05-08 09:54 38.69478 -77.37476 30012 ft 390 kts 232°
2026-05-08 09:54 38.65450 -77.42133 30015 ft 388 kts 232°
2026-05-08 09:55 38.61449 -77.46752 30019 ft 388 kts 233°
2026-05-08 09:55 38.57422 -77.51392 30014 ft 387 kts 232°
2026-05-08 09:56 38.53443 -77.55973 30022 ft 388 kts 233°
2026-05-08 09:56 38.49444 -77.60574 30016 ft 385 kts 232°
2026-05-08 09:57 38.43470 -77.67423 30028 ft 385 kts 233°
2026-05-08 09:57 38.39496 -77.71979 30015 ft 384 kts 233°
2026-05-08 09:58 38.35528 -77.76518 30020 ft 384 kts 232°
2026-05-08 09:58 38.31576 -77.81031 30021 ft 383 kts 232°
2026-05-08 09:59 38.27600 -77.85553 30013 ft 382 kts 233°
2026-05-08 09:59 38.23652 -77.90042 30026 ft 383 kts 233°
2026-05-08 10:00 38.19696 -77.94542 30017 ft 382 kts 233°
2026-05-08 10:00 38.15745 -77.99026 30023 ft 382 kts 233°
2026-05-08 10:01 38.11790 -78.03507 30026 ft 381 kts 232°
2026-05-08 10:01 38.07840 -78.07967 30020 ft 379 kts 233°
2026-05-08 10:02 38.03925 -78.12385 30026 ft 378 kts 234°
2026-05-08 10:02 38.00209 -78.17030 30017 ft 372 kts 238°
2026-05-08 10:03 37.96814 -78.21899 30031 ft 369 kts 239°
2026-05-08 10:03 37.93452 -78.26739 30027 ft 369 kts 239°
2026-05-08 10:04 37.90049 -78.31647 30027 ft 371 kts 239°
2026-05-08 10:04 37.86662 -78.36536 30039 ft 370 kts 239°
2026-05-08 10:05 37.83290 -78.41388 30022 ft 369 kts 239°
2026-05-08 10:05 37.79896 -78.46273 30028 ft 369 kts 239°
2026-05-08 10:06 37.76526 -78.51113 30030 ft 367 kts 239°
2026-05-08 10:06 37.73141 -78.55952 30034 ft 369 kts 239°
2026-05-08 10:07 37.69741 -78.60830 30032 ft 368 kts 239°
2026-05-08 10:07 37.66370 -78.65647 30036 ft 370 kts 239°
2026-05-08 10:08 37.62962 -78.70522 30034 ft 370 kts 238°
2026-05-08 10:08 37.59555 -78.75370 30036 ft 371 kts 239°
2026-05-08 10:09 37.56136 -78.80223 30044 ft 371 kts 240°
2026-05-08 10:09 37.52727 -78.85094 30038 ft 371 kts 239°
2026-05-08 10:10 37.49311 -78.89967 30038 ft 371 kts 238°
2026-05-08 10:10 37.45858 -78.94823 30037 ft 373 kts 239°
2026-05-08 10:11 37.42450 -78.99649 30041 ft 372 kts 239°
2026-05-08 10:11 37.39005 -79.04534 30051 ft 372 kts 239°
2026-05-08 10:12 37.35565 -79.09377 30059 ft 372 kts 239°
2026-05-08 10:12 37.32164 -79.14185 30057 ft 371 kts 238°
2026-05-08 10:13 37.28732 -79.19016 30045 ft 372 kts 238°
2026-05-08 10:13 37.25266 -79.23821 30055 ft 373 kts 237°
2026-05-08 10:14 37.21595 -79.28449 30051 ft 375 kts 236°
2026-05-08 10:14 37.17930 -79.33083 30053 ft 374 kts 236°
2026-05-08 10:15 37.14257 -79.37708 30063 ft 375 kts 237°
2026-05-08 10:15 37.10598 -79.42316 30063 ft 374 kts 236°
2026-05-08 10:16 37.06913 -79.46957 30059 ft 374 kts 236°
2026-05-08 10:16 37.03267 -79.51527 30065 ft 374 kts 236°
2026-05-08 10:17 36.99596 -79.56132 30059 ft 374 kts 235°
2026-05-08 10:17 36.95915 -79.60738 30051 ft 375 kts 236°
2026-05-08 10:18 36.92205 -79.65342 30062 ft 374 kts 236°
2026-05-08 10:18 36.88508 -79.69964 30054 ft 378 kts 236°
2026-05-08 10:19 36.84815 -79.74572 30048 ft 376 kts 235°
2026-05-08 10:20 36.79251 -79.81471 30028 ft 376 kts 236°
2026-05-08 10:20 36.75522 -79.86092 30071 ft 377 kts 236°
2026-05-08 10:21 36.71797 -79.90729 30041 ft 378 kts 236°
2026-05-08 10:21 36.68064 -79.95335 30063 ft 375 kts 236°
2026-05-08 10:22 36.64354 -79.99921 30049 ft 377 kts 236°
2026-05-08 10:22 36.60627 -80.04514 30046 ft 377 kts 236°
2026-05-08 10:23 36.56912 -80.09065 30055 ft 375 kts 237°
2026-05-08 10:23 36.53219 -80.13635 30061 ft 374 kts 236°
2026-05-08 10:24 36.49515 -80.18175 30064 ft 374 kts 236°
2026-05-08 10:24 36.45812 -80.22711 30057 ft 374 kts 237°
2026-05-08 10:25 36.42121 -80.27265 30059 ft 373 kts 235°
2026-05-08 10:25 36.38407 -80.31795 30065 ft 373 kts 236°
2026-05-08 10:26 36.34684 -80.36314 30041 ft 370 kts 237°
2026-05-08 10:26 36.31004 -80.40807 30061 ft 374 kts 237°
2026-05-08 10:27 36.27330 -80.45334 30087 ft 370 kts 234°
2026-05-08 10:27 36.23846 -80.49936 30063 ft 366 kts 239°
2026-05-08 10:28 36.20740 -80.54845 30080 ft 361 kts 244°
2026-05-08 10:28 36.17961 -80.59983 30086 ft 358 kts 245°
2026-05-08 10:29 36.15200 -80.65135 30088 ft 358 kts 246°
2026-05-08 10:29 36.12456 -80.70308 30083 ft 358 kts 245°
2026-05-08 10:30 36.09729 -80.75456 30067 ft 358 kts 244°
2026-05-08 10:30 36.06988 -80.80605 30091 ft 358 kts 244°
2026-05-08 10:31 36.04239 -80.85756 30079 ft 357 kts 244°
2026-05-08 10:31 36.01481 -80.90886 30083 ft 358 kts 246°
2026-05-08 10:32 35.98756 -80.96004 30096 ft 357 kts 245°
2026-05-08 10:32 35.96002 -81.01177 30079 ft 359 kts 245°
2026-05-08 10:33 35.93251 -81.06299 30078 ft 359 kts 246°
2026-05-08 10:33 35.90479 -81.11485 30072 ft 359 kts 245°
2026-05-08 10:34 35.87732 -81.16595 30087 ft 358 kts 245°
2026-05-08 10:34 35.84978 -81.21729 30083 ft 359 kts 244°
2026-05-08 10:35 35.82204 -81.26854 30084 ft 358 kts 244°
2026-05-08 10:35 35.79434 -81.31992 30089 ft 361 kts 245°
2026-05-08 10:36 35.76643 -81.37152 30079 ft 361 kts 244°
2026-05-08 10:36 35.73857 -81.42284 30070 ft 359 kts 245°
2026-05-08 10:37 35.71090 -81.47397 30076 ft 360 kts 245°
2026-05-08 10:37 35.68310 -81.52525 30080 ft 359 kts 245°
2026-05-08 10:38 35.65529 -81.57652 30076 ft 359 kts 244°
2026-05-08 10:38 35.62759 -81.62752 30082 ft 359 kts 245°
2026-05-08 10:39 35.59957 -81.67866 30084 ft 361 kts 245°
2026-05-08 10:39 35.57162 -81.72999 30086 ft 361 kts 244°
2026-05-08 10:40 35.54379 -81.78103 30091 ft 361 kts 244°
2026-05-08 10:40 35.51554 -81.83231 30081 ft 361 kts 244°
2026-05-08 10:41 35.48763 -81.88312 30077 ft 360 kts 245°
2026-05-08 10:41 35.45967 -81.93426 30085 ft 361 kts 244°
2026-05-08 10:42 35.43156 -81.98543 30069 ft 360 kts 244°
2026-05-08 10:42 35.40342 -82.03627 30081 ft 361 kts 244°
2026-05-08 10:43 35.37535 -82.08716 30082 ft 362 kts 245°
2026-05-08 10:43 35.34726 -82.13827 30089 ft 361 kts 244°
2026-05-08 10:44 35.31912 -82.18928 30091 ft 360 kts 244°
2026-05-08 10:44 35.29097 -82.23994 30085 ft 361 kts 243°
2026-05-08 10:45 35.26272 -82.29071 30086 ft 361 kts 243°
2026-05-08 10:45 35.23461 -82.34110 30099 ft 361 kts 244°
2026-05-08 10:46 35.20633 -82.39207 30083 ft 361 kts 244°
2026-05-08 10:46 35.17820 -82.44282 30084 ft 359 kts 243°
2026-05-08 10:47 35.15000 -82.49335 30088 ft 361 kts 243°
2026-05-08 10:47 35.12146 -82.54414 30089 ft 359 kts 244°
2026-05-08 10:48 35.09331 -82.59455 30080 ft 359 kts 244°
2026-05-08 10:48 35.06509 -82.64484 30095 ft 360 kts 244°
2026-05-08 10:49 35.03673 -82.69539 30090 ft 361 kts 243°
2026-05-08 10:49 35.00825 -82.74603 30086 ft 360 kts 243°
2026-05-08 10:50 34.97992 -82.79639 30085 ft 360 kts 243°
2026-05-08 10:50 34.95130 -82.84719 30082 ft 361 kts 244°
2026-05-08 10:51 34.92278 -82.89764 30082 ft 362 kts 244°
2026-05-08 10:51 34.89438 -82.94815 30084 ft 361 kts 243°
2026-05-08 10:52 34.86541 -82.99903 30087 ft 363 kts 244°
2026-05-08 10:52 34.83693 -83.04946 30091 ft 362 kts 243°
2026-05-08 10:53 34.80823 -83.10028 30083 ft 362 kts 242°
2026-05-08 10:53 34.77937 -83.15075 30082 ft 364 kts 243°
2026-05-08 10:54 34.75055 -83.20122 30085 ft 365 kts 243°
2026-05-08 10:54 34.72236 -83.25246 30066 ft 362 kts 244°
2026-05-08 10:55 34.69788 -83.30586 30070 ft 360 kts 250°
2026-05-08 10:55 34.67814 -83.36153 30074 ft 356 kts 254°
2026-05-08 10:56 34.66174 -83.41827 30067 ft 356 kts 256°
2026-05-08 10:56 34.64530 -83.47529 30075 ft 356 kts 255°
2026-05-08 10:57 34.62899 -83.53188 30067 ft 356 kts 256°
2026-05-08 10:57 34.60456 -83.61704 30073 ft 355 kts 255°
2026-05-08 10:58 34.58830 -83.67364 30076 ft 357 kts 255°
2026-05-08 10:58 34.57197 -83.73046 30071 ft 358 kts 255°
2026-05-08 10:59 34.55548 -83.78749 30070 ft 358 kts 255°
2026-05-08 10:59 34.53904 -83.84438 30070 ft 359 kts 255°
2026-05-08 11:00 34.52261 -83.90134 30069 ft 358 kts 255°
2026-05-08 11:00 34.50613 -83.95827 30068 ft 358 kts 255°
2026-05-08 11:01 34.48957 -84.01541 30068 ft 360 kts 255°
2026-05-08 11:01 34.47302 -84.07236 30067 ft 359 kts 254°
2026-05-08 11:02 34.44804 -84.15786 30070 ft 358 kts 254°
2026-05-08 11:03 34.43144 -84.21465 30070 ft 360 kts 254°
2026-05-08 11:03 34.41476 -84.27158 30075 ft 359 kts 254°
2026-05-08 11:04 34.39791 -84.32873 30082 ft 360 kts 254°
2026-05-08 11:04 34.38115 -84.38563 30082 ft 361 kts 255°
2026-05-08 11:05 34.36433 -84.44267 30082 ft 361 kts 254°
2026-05-08 11:05 34.34745 -84.49987 30083 ft 361 kts 254°
2026-05-08 11:06 34.33060 -84.55688 30085 ft 362 kts 255°
2026-05-08 11:06 34.31367 -84.61417 30084 ft 361 kts 255°
2026-05-08 11:07 34.29668 -84.67128 30091 ft 362 kts 253°
2026-05-08 11:07 34.27964 -84.72849 30089 ft 362 kts 253°
2026-05-08 11:08 34.26262 -84.78560 30091 ft 363 kts 253°
2026-05-08 11:08 34.24545 -84.84307 30086 ft 362 kts 253°
2026-05-08 11:09 34.22829 -84.90022 30087 ft 363 kts 253°
2026-05-08 11:09 34.21116 -84.95734 30091 ft 363 kts 254°
2026-05-08 11:10 34.19398 -85.01445 30094 ft 364 kts 253°
2026-05-08 11:10 34.17644 -85.07187 30091 ft 365 kts 252°
2026-05-08 11:11 34.15538 -85.12804 30091 ft 368 kts 248°
2026-05-08 11:11 34.13052 -85.18179 30090 ft 370 kts 245°
2026-05-08 11:12 34.10422 -85.23531 30087 ft 371 kts 244°
2026-05-08 11:12 34.07744 -85.28887 30089 ft 372 kts 245°
2026-05-08 11:13 34.05088 -85.34210 30092 ft 370 kts 245°
2026-05-08 11:13 34.02418 -85.39546 30092 ft 372 kts 245°
2026-05-08 11:14 33.99742 -85.44881 30092 ft 371 kts 244°
2026-05-08 11:14 33.97072 -85.50203 30091 ft 372 kts 244°
2026-05-08 11:15 33.94374 -85.55572 30091 ft 372 kts 244°
2026-05-08 11:15 33.91694 -85.60895 30091 ft 372 kts 245°
2026-05-08 11:16 33.89004 -85.66222 30096 ft 372 kts 244°
2026-05-08 11:16 33.86311 -85.71551 30092 ft 371 kts 244°
2026-05-08 11:17 33.83613 -85.76878 30090 ft 373 kts 244°
2026-05-08 11:17 33.80911 -85.82200 30087 ft 373 kts 244°
2026-05-08 11:18 33.78218 -85.87502 30085 ft 372 kts 244°
2026-05-08 11:18 33.75514 -85.92813 30086 ft 373 kts 244°
2026-05-08 11:19 33.72819 -85.98109 30080 ft 373 kts 244°
2026-05-08 11:19 33.70103 -86.03440 30076 ft 373 kts 244°
2026-05-08 11:20 33.67406 -86.08726 30083 ft 373 kts 244°
2026-05-08 11:20 33.64688 -86.14033 30087 ft 373 kts 244°
2026-05-08 11:21 33.61979 -86.19318 30087 ft 372 kts 244°
2026-05-08 11:21 33.59271 -86.24609 30089 ft 373 kts 244°
2026-05-08 11:22 33.56560 -86.29883 30089 ft 371 kts 244°
2026-05-08 11:22 33.53839 -86.35166 30088 ft 373 kts 244°
2026-05-08 11:23 33.51127 -86.40430 30084 ft 372 kts 244°
2026-05-08 11:23 33.48416 -86.45685 30084 ft 372 kts 244°
2026-05-08 11:24 33.45687 -86.50960 30084 ft 372 kts 244°
2026-05-08 11:24 33.42980 -86.56200 30085 ft 372 kts 244°
2026-05-08 11:25 33.40242 -86.61485 30081 ft 372 kts 244°
2026-05-08 11:25 33.37520 -86.66727 30086 ft 372 kts 243°
2026-05-08 11:26 33.34793 -86.71976 30082 ft 373 kts 244°
2026-05-08 11:26 33.32055 -86.77245 30081 ft 373 kts 244°
2026-05-08 11:27 33.29317 -86.82503 30084 ft 372 kts 244°
2026-05-08 11:27 33.26569 -86.87769 30083 ft 375 kts 244°
2026-05-08 11:28 33.23827 -86.93037 30082 ft 373 kts 244°
2026-05-08 11:28 33.21331 -86.98428 30081 ft 372 kts 246°
2026-05-08 11:29 33.18875 -87.03879 30080 ft 373 kts 246°
2026-05-08 11:29 33.16446 -87.09291 30077 ft 371 kts 246°
2026-05-08 11:30 33.13992 -87.14746 30074 ft 373 kts 247°
2026-05-08 11:30 33.11544 -87.20190 30074 ft 373 kts 246°
2026-05-08 11:31 33.09097 -87.25621 30075 ft 373 kts 246°
2026-05-08 11:31 33.06622 -87.31104 30074 ft 375 kts 246°
2026-05-08 11:32 33.04156 -87.36561 30076 ft 374 kts 246°
2026-05-08 11:32 33.01689 -87.42013 30075 ft 375 kts 246°
2026-05-08 11:33 32.99215 -87.47491 30074 ft 375 kts 246°
2026-05-08 11:33 32.96725 -87.52973 30070 ft 376 kts 246°
2026-05-08 11:34 32.94234 -87.58445 30070 ft 377 kts 246°
2026-05-08 11:34 32.91759 -87.63886 30076 ft 375 kts 246°
2026-05-08 11:35 32.89265 -87.69353 30070 ft 375 kts 245°
2026-05-08 11:35 32.86765 -87.74822 30071 ft 377 kts 245°
2026-05-08 11:36 32.84256 -87.80308 30069 ft 377 kts 246°
2026-05-08 11:36 32.81758 -87.85775 30070 ft 377 kts 245°
2026-05-08 11:37 32.79249 -87.91240 30071 ft 378 kts 245°
2026-05-08 11:37 32.76733 -87.96709 30072 ft 377 kts 245°
2026-05-08 11:38 32.74212 -88.02197 30066 ft 378 kts 245°
2026-05-08 11:38 32.71684 -88.07680 30066 ft 379 kts 245°
2026-05-08 11:39 32.69162 -88.13156 30068 ft 378 kts 245°
2026-05-08 11:39 32.66630 -88.18618 30063 ft 379 kts 245°
2026-05-08 11:40 32.64087 -88.24113 30068 ft 379 kts 245°
2026-05-08 11:40 32.61566 -88.29565 30064 ft 379 kts 245°
2026-05-08 11:41 32.59001 -88.35077 30069 ft 381 kts 245°
2026-05-08 11:41 32.56464 -88.40552 30068 ft 381 kts 245°
2026-05-08 11:42 32.53917 -88.46014 30070 ft 379 kts 244°
2026-05-08 11:42 32.51355 -88.51502 30071 ft 381 kts 245°
2026-05-08 11:43 32.48793 -88.56999 30071 ft 381 kts 244°
2026-05-08 11:43 32.46227 -88.62479 30071 ft 381 kts 244°
2026-05-08 11:44 32.43671 -88.67931 30071 ft 380 kts 244°
2026-05-08 11:44 32.41108 -88.73406 30068 ft 381 kts 244°
2026-05-08 11:45 32.38526 -88.78906 30068 ft 382 kts 244°
2026-05-08 11:45 32.35910 -88.84325 30068 ft 383 kts 243°
2026-05-08 11:46 32.33231 -88.89747 30064 ft 382 kts 242°
2026-05-08 11:46 32.30533 -88.95203 30066 ft 383 kts 243°
2026-05-08 11:47 32.27832 -89.00655 30057 ft 385 kts 242°
2026-05-08 11:47 32.25136 -89.06113 30059 ft 386 kts 242°
2026-05-08 11:48 32.22440 -89.11558 30058 ft 386 kts 243°
2026-05-08 11:48 32.19723 -89.17046 30055 ft 385 kts 242°
2026-05-08 11:49 32.17009 -89.22512 30054 ft 385 kts 242°
2026-05-08 11:49 32.14337 -89.27885 30053 ft 386 kts 242°
2026-05-08 11:50 32.11594 -89.33382 30051 ft 388 kts 242°
2026-05-08 11:50 32.08869 -89.38848 30050 ft 387 kts 243°
2026-05-08 11:51 32.06148 -89.44303 30049 ft 387 kts 242°
2026-05-08 11:51 32.03384 -89.49831 30048 ft 389 kts 242°
2026-05-08 11:52 32.00655 -89.55288 30047 ft 388 kts 242°
2026-05-08 11:52 31.97900 -89.60779 30045 ft 388 kts 241°
2026-05-08 11:53 31.95140 -89.66266 30048 ft 389 kts 241°
2026-05-08 11:53 31.92389 -89.71732 30039 ft 389 kts 242°
2026-05-08 11:54 31.89635 -89.77212 30044 ft 389 kts 241°
2026-05-08 11:54 31.86863 -89.82701 30042 ft 390 kts 241°
2026-05-08 11:55 31.84088 -89.88191 30046 ft 389 kts 241°
2026-05-08 11:55 31.81321 -89.93657 30046 ft 389 kts 241°
2026-05-08 11:56 31.78560 -89.99110 30052 ft 388 kts 241°
2026-05-08 11:56 31.75800 -90.04549 30053 ft 388 kts 241°
2026-05-08 11:57 31.73014 -90.10031 30050 ft 389 kts 242°
2026-05-08 11:57 31.70228 -90.15509 30051 ft 390 kts 242°
2026-05-08 11:58 31.67454 -90.20958 30052 ft 390 kts 242°
2026-05-08 11:58 31.64658 -90.26441 30054 ft 391 kts 242°
2026-05-08 11:59 31.60476 -90.34616 30057 ft 391 kts 242°
2026-05-08 11:59 31.57687 -90.40060 30054 ft 390 kts 242°
2026-05-08 12:00 31.54878 -90.45537 30052 ft 391 kts 241°
2026-05-08 12:00 31.52075 -90.50998 30049 ft 390 kts 242°
2026-05-08 12:01 31.49254 -90.56480 30053 ft 390 kts 242°
2026-05-08 12:01 31.46458 -90.61906 30048 ft 390 kts 241°
2026-05-08 12:02 31.43645 -90.67362 30052 ft 390 kts 241°
2026-05-08 12:02 31.40837 -90.72791 30050 ft 390 kts 242°
2026-05-08 12:03 31.38014 -90.78262 30046 ft 389 kts 240°
2026-05-08 12:03 31.35218 -90.83644 30045 ft 390 kts 241°
2026-05-08 12:04 31.32396 -90.89089 30044 ft 390 kts 242°
2026-05-08 12:04 31.29595 -90.94489 30044 ft 390 kts 241°
2026-05-08 12:05 31.26776 -90.99912 30044 ft 390 kts 241°
2026-05-08 12:05 31.23972 -91.05283 30038 ft 389 kts 242°
2026-05-08 12:06 31.21139 -91.10709 30037 ft 392 kts 241°
2026-05-08 12:06 31.18304 -91.16146 30034 ft 392 kts 242°
2026-05-08 12:07 31.15453 -91.21590 30024 ft 392 kts 242°
2026-05-08 12:07 31.12608 -91.27017 30013 ft 394 kts 242°
2026-05-08 12:08 31.09759 -91.32457 30016 ft 393 kts 242°
2026-05-08 12:08 31.06892 -91.37921 30018 ft 395 kts 241°
2026-05-08 12:09 31.04013 -91.43381 30015 ft 397 kts 241°
2026-05-08 12:09 31.01133 -91.48852 30029 ft 397 kts 241°
2026-05-08 12:10 30.98238 -91.54333 30036 ft 398 kts 242°
2026-05-08 12:10 30.95326 -91.59851 30037 ft 400 kts 242°
2026-05-08 12:11 30.92386 -91.65406 30032 ft 402 kts 241°
2026-05-08 12:11 30.89451 -91.70969 30033 ft 403 kts 240°
2026-05-08 12:12 30.86517 -91.76488 30026 ft 403 kts 241°
2026-05-08 12:12 30.83547 -91.82076 30022 ft 405 kts 241°
2026-05-08 12:13 30.80573 -91.87657 30020 ft 406 kts 240°
2026-05-08 12:13 30.77585 -91.93261 30023 ft 406 kts 241°
2026-05-08 12:14 30.74594 -91.98874 30017 ft 406 kts 240°
2026-05-08 12:14 30.71608 -92.04461 30026 ft 407 kts 240°
2026-05-08 12:15 30.68630 -92.10026 30026 ft 405 kts 241°
2026-05-08 12:15 30.65662 -92.15571 30022 ft 404 kts 241°
2026-05-08 12:16 30.62689 -92.21117 30020 ft 403 kts 240°
2026-05-08 12:16 30.59713 -92.26653 30015 ft 404 kts 241°
2026-05-08 12:17 30.56742 -92.32177 30019 ft 403 kts 241°
2026-05-08 12:17 30.53772 -92.37685 30015 ft 402 kts 240°
2026-05-08 12:18 30.50797 -92.43192 30013 ft 403 kts 240°
2026-05-08 12:18 30.47828 -92.48689 30012 ft 403 kts 240°
2026-05-08 12:19 30.44860 -92.54180 30008 ft 401 kts 240°
2026-05-08 12:19 30.41890 -92.59669 30003 ft 401 kts 240°
2026-05-08 12:20 30.38935 -92.65124 30006 ft 400 kts 240°
2026-05-08 12:20 30.35994 -92.70531 30008 ft 398 kts 240°
2026-05-08 12:21 30.33032 -92.75973 30002 ft 398 kts 240°
2026-05-08 12:21 30.30077 -92.81388 30003 ft 399 kts 239°
2026-05-08 12:22 30.27116 -92.86817 30002 ft 398 kts 240°
2026-05-08 12:22 30.24160 -92.92239 30004 ft 398 kts 240°
2026-05-08 12:23 30.21201 -92.97650 30005 ft 398 kts 239°
2026-05-08 12:23 30.18255 -93.03023 30006 ft 396 kts 240°
2026-05-08 12:24 30.15291 -93.08433 30004 ft 398 kts 239°
2026-05-08 12:24 30.12493 -93.13949 30002 ft 398 kts 242°
2026-05-08 12:25 30.09801 -93.19476 29994 ft 395 kts 242°
2026-05-08 12:25 30.07103 -93.25023 29998 ft 396 kts 241°
2026-05-08 12:26 30.04401 -93.30583 29994 ft 395 kts 241°
2026-05-08 12:26 30.01712 -93.36090 29996 ft 395 kts 242°
2026-05-08 12:27 29.99011 -93.41628 29998 ft 396 kts 242°
2026-05-08 12:27 29.96313 -93.47158 29999 ft 396 kts 242°
2026-05-08 12:28 29.93616 -93.52680 30001 ft 394 kts 241°
2026-05-08 12:28 29.90915 -93.58189 30002 ft 396 kts 242°
2026-05-08 12:29 29.88202 -93.63731 29990 ft 397 kts 241°
2026-05-08 12:29 29.85488 -93.69263 29987 ft 397 kts 241°
2026-05-08 12:30 29.82753 -93.74823 29982 ft 397 kts 240°
2026-05-08 12:30 29.80031 -93.80355 29979 ft 398 kts 240°
2026-05-08 12:31 29.77300 -93.85887 29978 ft 398 kts 240°
2026-05-08 12:31 29.74571 -93.91425 29972 ft 399 kts 239°
2026-05-08 12:32 29.71820 -93.96976 29973 ft 399 kts 240°
2026-05-08 12:32 29.69073 -94.02524 29971 ft 400 kts 240°
2026-05-08 12:33 29.66310 -94.08096 29963 ft 400 kts 240°
2026-05-08 12:33 29.63583 -94.13599 29970 ft 399 kts 240°
2026-05-08 12:34 29.60827 -94.19143 29963 ft 400 kts 240°
2026-05-08 12:34 29.58057 -94.24710 29960 ft 400 kts 240°
2026-05-08 12:35 29.55302 -94.30237 29966 ft 400 kts 240°
2026-05-08 12:35 29.52531 -94.35789 29958 ft 402 kts 240°
2026-05-08 12:36 29.49732 -94.41383 29953 ft 402 kts 240°
2026-05-08 12:36 29.46960 -94.46924 29953 ft 401 kts 240°
2026-05-08 12:37 29.44178 -94.52477 29955 ft 401 kts 240°
2026-05-08 12:37 29.41377 -94.58063 29956 ft 404 kts 239°
2026-05-08 12:38 29.38587 -94.63608 29957 ft 403 kts 240°
2026-05-08 12:38 29.35788 -94.69175 29960 ft 404 kts 240°
2026-05-08 12:39 29.32975 -94.74766 29959 ft 404 kts 239°
2026-05-08 12:39 29.30154 -94.80347 29962 ft 403 kts 239°
2026-05-08 12:40 29.27443 -94.85986 29964 ft 404 kts 243°
2026-05-08 12:40 29.25171 -94.91873 29964 ft 404 kts 247°
2026-05-08 12:41 29.23111 -94.97825 29965 ft 404 kts 246°
2026-05-08 12:41 29.21023 -95.03835 29964 ft 404 kts 247°
2026-05-08 12:42 29.18943 -95.09832 29962 ft 405 kts 247°
2026-05-08 12:42 29.16875 -95.15800 29963 ft 405 kts 247°
2026-05-08 12:43 29.14801 -95.21783 29963 ft 405 kts 247°
2026-05-08 12:43 29.12715 -95.27780 29959 ft 405 kts 247°
2026-05-08 12:44 29.10633 -95.33761 29956 ft 406 kts 247°
2026-05-08 12:44 29.08538 -95.39768 29960 ft 407 kts 247°
2026-05-08 12:45 29.06440 -95.45768 29958 ft 406 kts 247°
2026-05-08 12:45 29.04350 -95.51736 29950 ft 407 kts 247°
2026-05-08 12:46 29.02239 -95.57761 29943 ft 405 kts 247°
2026-05-08 12:46 29.00146 -95.63727 29941 ft 405 kts 247°
2026-05-08 12:47 28.98043 -95.69703 29934 ft 406 kts 246°
2026-05-08 12:47 28.95939 -95.75667 29933 ft 406 kts 246°
2026-05-08 12:48 28.93839 -95.81624 29933 ft 406 kts 246°
2026-05-08 12:48 28.91725 -95.87595 29932 ft 406 kts 246°
2026-05-08 12:49 28.89601 -95.93586 29937 ft 406 kts 247°
2026-05-08 12:49 28.87488 -95.99548 29932 ft 406 kts 246°
2026-05-08 12:50 28.85356 -96.05556 29930 ft 407 kts 246°
2026-05-08 12:50 28.83242 -96.11510 29932 ft 407 kts 246°
2026-05-08 12:51 28.80049 -96.20467 29934 ft 407 kts 246°
2026-05-08 12:52 28.77926 -96.26400 29939 ft 406 kts 246°
2026-05-08 12:52 28.74569 -96.35233 29945 ft 403 kts 244°
2026-05-08 12:53 28.72253 -96.41054 29941 ft 404 kts 245°
2026-05-08 12:53 28.69936 -96.46882 29941 ft 403 kts 245°
2026-05-08 12:54 28.67635 -96.52651 29940 ft 402 kts 244°
2026-05-08 12:54 28.65310 -96.58453 29939 ft 402 kts 245°
2026-05-08 12:55 28.62999 -96.64242 29944 ft 401 kts 245°
2026-05-08 12:55 28.60693 -96.69998 29947 ft 400 kts 244°
2026-05-08 12:56 28.58396 -96.75723 29947 ft 400 kts 244°
2026-05-08 12:56 28.56075 -96.81493 29945 ft 400 kts 244°
2026-05-08 12:57 28.53770 -96.87223 29947 ft 399 kts 245°
2026-05-08 12:57 28.51472 -96.92937 29940 ft 398 kts 245°
2026-05-08 12:58 28.49171 -96.98641 29938 ft 398 kts 244°
2026-05-08 12:58 28.46852 -97.04374 29943 ft 398 kts 244°
2026-05-08 12:59 28.44556 -97.10046 29941 ft 398 kts 244°
2026-05-08 12:59 28.42240 -97.15773 29942 ft 398 kts 244°
2026-05-08 13:00 28.39930 -97.21465 29942 ft 398 kts 244°
2026-05-08 13:00 28.37601 -97.27188 29941 ft 398 kts 244°
2026-05-08 13:01 28.35279 -97.32884 29940 ft 398 kts 244°
2026-05-08 13:01 28.32953 -97.38582 29938 ft 398 kts 244°
2026-05-08 13:02 28.30628 -97.44276 29942 ft 398 kts 244°
2026-05-08 13:02 28.28280 -97.50012 29944 ft 400 kts 244°
2026-05-08 13:03 28.25953 -97.55695 29949 ft 399 kts 244°
2026-05-08 13:03 28.23602 -97.61417 29952 ft 399 kts 244°
2026-05-08 13:04 28.21262 -97.67103 29954 ft 399 kts 243°
2026-05-08 13:04 28.18907 -97.72817 29953 ft 399 kts 244°
2026-05-08 13:05 28.16563 -97.78503 29956 ft 399 kts 243°
2026-05-08 13:05 28.14214 -97.84198 29952 ft 400 kts 243°
2026-05-08 13:06 28.11855 -97.89920 29954 ft 400 kts 244°
2026-05-08 13:06 28.09498 -97.95625 29959 ft 401 kts 243°
2026-05-08 13:07 28.07128 -98.01341 29958 ft 400 kts 244°
2026-05-08 13:07 28.04757 -98.07050 29963 ft 401 kts 244°
2026-05-08 13:08 28.02378 -98.12766 29963 ft 401 kts 244°
2026-05-08 13:08 27.99998 -98.18485 29960 ft 401 kts 243°
2026-05-08 13:09 27.97621 -98.24182 29953 ft 400 kts 243°
2026-05-08 13:09 27.95243 -98.29869 29948 ft 400 kts 243°
2026-05-08 13:10 27.92878 -98.35529 29937 ft 400 kts 243°
2026-05-08 13:10 27.90485 -98.41231 29943 ft 401 kts 243°
2026-05-08 13:11 27.88099 -98.46916 29943 ft 400 kts 243°
2026-05-08 13:11 27.85719 -98.52583 29942 ft 400 kts 243°
2026-05-08 13:12 27.83322 -98.58286 29941 ft 400 kts 243°
2026-05-08 13:12 27.80938 -98.63946 29944 ft 400 kts 243°
2026-05-08 13:13 27.78543 -98.69622 29943 ft 401 kts 243°
2026-05-08 13:13 27.76141 -98.75305 29946 ft 400 kts 243°
2026-05-08 13:14 27.73733 -98.80997 29941 ft 400 kts 243°
2026-05-08 13:14 27.71334 -98.86668 29948 ft 400 kts 243°
2026-05-08 13:15 27.68939 -98.92317 29951 ft 399 kts 243°
2026-05-08 13:15 27.66541 -98.97965 29944 ft 398 kts 243°
2026-05-08 13:16 27.64157 -99.03578 29947 ft 399 kts 243°
2026-05-08 13:16 27.61757 -99.09224 29950 ft 399 kts 243°
2026-05-08 13:17 27.59360 -99.14857 29948 ft 400 kts 243°
2026-05-08 13:17 27.56955 -99.20507 29951 ft 400 kts 243°
2026-05-08 13:18 27.54532 -99.26186 29948 ft 400 kts 243°
2026-05-08 13:18 27.52130 -99.31803 29951 ft 399 kts 243°
2026-05-08 13:19 27.49719 -99.37440 29950 ft 399 kts 244°
2026-05-08 13:19 27.47584 -99.43243 29952 ft 400 kts 248°
2026-05-08 13:20 27.45884 -99.49223 29951 ft 401 kts 250°
2026-05-08 13:20 27.44239 -99.55260 29950 ft 401 kts 250°
2026-05-08 13:21 27.42357 -99.61149 29945 ft 400 kts 248°
2026-05-08 13:21 27.40418 -99.67025 29951 ft 400 kts 247°
2026-05-08 13:22 27.38473 -99.72914 29952 ft 400 kts 247°
2026-05-08 13:22 27.36534 -99.78767 29945 ft 400 kts 248°
2026-05-08 13:23 27.34589 -99.84631 29940 ft 400 kts 248°
2026-05-08 13:23 27.32640 -99.90489 29938 ft 400 kts 248°
2026-05-08 13:24 27.30683 -99.96365 29932 ft 399 kts 248°
2026-05-08 13:24 27.28740 -100.02189 29931 ft 400 kts 248°
2026-05-08 13:25 27.26788 -100.08044 29936 ft 399 kts 247°
2026-05-08 13:25 27.24839 -100.13872 29938 ft 399 kts 247°
2026-05-08 13:26 27.22873 -100.19737 29935 ft 399 kts 247°
2026-05-08 13:26 27.20917 -100.25570 29942 ft 399 kts 248°
2026-05-08 13:27 27.18947 -100.31437 29941 ft 399 kts 247°
2026-05-08 13:27 27.16992 -100.37237 29940 ft 399 kts 248°
2026-05-08 13:28 27.15033 -100.43055 29948 ft 398 kts 248°
2026-05-08 13:28 27.13074 -100.48865 29960 ft 399 kts 248°
2026-05-08 13:29 27.11115 -100.54662 29960 ft 398 kts 247°
2026-05-08 13:29 27.09132 -100.60495 29974 ft 398 kts 247°
2026-05-08 13:30 27.07149 -100.66318 29990 ft 398 kts 247°
2026-05-08 13:30 27.05177 -100.72125 29997 ft 397 kts 247°
2026-05-08 13:31 27.03203 -100.77917 30012 ft 398 kts 247°
2026-05-08 13:31 27.01239 -100.83688 30011 ft 398 kts 247°
2026-05-08 13:32 26.99262 -100.89498 30015 ft 398 kts 247°
2026-05-08 13:32 26.97285 -100.95287 30013 ft 397 kts 247°
2026-05-08 13:33 26.95313 -101.01047 30007 ft 397 kts 247°
2026-05-08 13:33 26.93338 -101.06808 30016 ft 397 kts 247°
2026-05-08 13:34 26.91354 -101.12583 30021 ft 397 kts 248°
2026-05-08 13:34 26.89376 -101.18332 30034 ft 397 kts 247°
2026-05-08 13:35 26.87385 -101.24101 30048 ft 396 kts 247°
2026-05-08 13:35 26.85402 -101.29845 30060 ft 396 kts 248°
2026-05-08 13:36 26.83493 -101.35380 30061 ft 397 kts 248°
2026-05-08 13:36 26.81503 -101.41142 30050 ft 396 kts 247°
2026-05-08 13:37 26.79508 -101.46892 30051 ft 397 kts 247°
2026-05-08 13:37 26.77508 -101.52646 30046 ft 397 kts 248°
2026-05-08 13:38 26.75507 -101.58401 30051 ft 397 kts 248°
2026-05-08 13:38 26.73511 -101.64136 30051 ft 397 kts 247°
2026-05-08 13:39 26.71507 -101.69876 30077 ft 397 kts 247°
2026-05-08 13:39 26.69494 -101.75647 30090 ft 395 kts 247°
2026-05-08 13:40 26.67498 -101.81368 30103 ft 397 kts 247°
2026-05-08 13:40 26.65488 -101.87110 30108 ft 397 kts 247°
2026-05-08 13:41 26.63386 -101.92773 30080 ft 396 kts 244°
2026-05-08 13:41 26.60943 -101.98284 30084 ft 395 kts 243°
2026-05-08 13:42 26.58481 -102.03783 30092 ft 395 kts 243°
2026-05-08 13:42 26.56034 -102.09251 30096 ft 395 kts 243°
2026-05-08 13:43 26.53577 -102.14733 30112 ft 396 kts 243°
2026-05-08 13:43 26.51103 -102.20230 30120 ft 395 kts 243°
2026-05-08 13:44 26.48644 -102.25687 30139 ft 395 kts 243°
2026-05-08 13:44 26.46172 -102.31187 30139 ft 395 kts 243°
2026-05-08 13:45 26.43721 -102.36635 30125 ft 396 kts 243°
2026-05-08 13:45 26.41240 -102.42128 30118 ft 396 kts 243°
2026-05-08 13:46 26.38766 -102.47597 30115 ft 395 kts 243°
2026-05-08 13:46 26.36296 -102.53060 30109 ft 396 kts 243°
2026-05-08 13:47 26.33805 -102.58555 30093 ft 396 kts 243°
2026-05-08 13:47 26.31323 -102.64020 30090 ft 395 kts 243°
2026-05-08 13:48 26.28832 -102.69492 30082 ft 396 kts 243°
2026-05-08 13:48 26.26352 -102.74947 30073 ft 396 kts 243°
2026-05-08 13:49 26.23860 -102.80421 30071 ft 396 kts 243°
2026-05-08 13:49 26.21367 -102.85880 30099 ft 396 kts 243°
2026-05-08 13:50 26.18869 -102.91344 30121 ft 395 kts 243°
2026-05-08 13:50 26.16379 -102.96785 30133 ft 394 kts 243°
2026-05-08 13:51 26.13887 -103.02214 30145 ft 395 kts 243°
2026-05-08 13:51 26.11408 -103.07626 30128 ft 395 kts 243°
2026-05-08 13:52 26.08917 -103.13067 30120 ft 395 kts 243°
2026-05-08 13:52 26.06415 -103.18510 30110 ft 395 kts 243°
2026-05-08 13:53 26.03922 -103.23940 30100 ft 395 kts 243°
2026-05-08 13:53 26.01404 -103.29410 30098 ft 395 kts 243°
2026-05-08 13:54 25.98906 -103.34825 30097 ft 394 kts 243°
2026-05-08 13:54 25.96394 -103.40252 30107 ft 395 kts 242°
2026-05-08 13:55 25.93880 -103.45673 30107 ft 395 kts 242°
2026-05-08 13:56 25.90107 -103.53793 30120 ft 395 kts 243°
2026-05-08 13:56 25.87581 -103.59240 30133 ft 395 kts 243°
2026-05-08 13:57 25.85070 -103.64656 30151 ft 395 kts 243°
2026-05-08 13:57 25.82558 -103.70064 30165 ft 394 kts 243°
2026-05-08 13:58 25.80043 -103.75471 30188 ft 394 kts 243°
2026-05-08 13:58 25.77530 -103.80871 30198 ft 394 kts 243°
2026-05-08 13:59 25.75016 -103.86256 30217 ft 395 kts 242°
2026-05-08 13:59 25.72479 -103.91663 30226 ft 394 kts 243°
2026-05-08 14:00 25.69967 -103.97050 30239 ft 394 kts 243°
2026-05-08 14:00 25.67439 -104.02457 30248 ft 394 kts 243°
2026-05-08 14:01 25.64909 -104.07855 30244 ft 394 kts 243°
2026-05-08 14:01 25.62384 -104.13232 30248 ft 395 kts 243°
2026-05-08 14:02 25.59853 -104.18625 30248 ft 395 kts 243°
2026-05-08 14:02 25.57309 -104.24042 30250 ft 396 kts 243°
2026-05-08 14:03 25.54769 -104.29430 30240 ft 395 kts 243°
2026-05-08 14:03 25.52226 -104.34813 30242 ft 396 kts 243°
2026-05-08 14:04 25.49675 -104.40213 30257 ft 396 kts 243°
2026-05-08 14:04 25.47112 -104.45640 30261 ft 396 kts 242°
2026-05-08 14:05 25.44569 -104.51010 30267 ft 396 kts 243°
2026-05-08 14:05 25.41998 -104.56429 30271 ft 397 kts 243°
2026-05-08 14:06 25.39432 -104.61820 30282 ft 397 kts 243°
2026-05-08 14:06 25.36863 -104.67220 30291 ft 396 kts 243°
2026-05-08 14:07 25.34299 -104.72624 30299 ft 397 kts 242°
2026-05-08 14:07 25.31724 -104.78027 30302 ft 398 kts 242°
2026-05-08 14:08 25.29214 -104.83464 30307 ft 397 kts 245°
2026-05-08 14:08 25.27162 -104.89127 30308 ft 399 kts 250°
2026-05-08 14:09 25.25644 -104.95007 30320 ft 400 kts 255°
2026-05-08 14:09 25.24396 -105.00981 30320 ft 400 kts 255°
2026-05-08 14:10 25.23154 -105.06989 30329 ft 399 kts 255°
2026-05-08 14:10 25.21913 -105.12947 30340 ft 398 kts 255°
2026-05-08 14:11 25.20684 -105.18881 30339 ft 399 kts 255°
2026-05-08 14:11 25.19446 -105.24844 30349 ft 399 kts 255°
2026-05-08 14:12 25.18205 -105.30820 30350 ft 398 kts 255°
2026-05-08 14:12 25.16966 -105.36769 30355 ft 398 kts 255°
2026-05-08 14:13 25.15725 -105.42712 30357 ft 398 kts 255°
2026-05-08 14:13 25.14486 -105.48637 30347 ft 398 kts 255°
2026-05-08 14:14 25.13237 -105.54614 30348 ft 398 kts 256°
2026-05-08 14:14 25.11999 -105.60538 30372 ft 397 kts 256°
2026-05-08 14:15 25.10752 -105.66470 30378 ft 396 kts 255°
2026-05-08 14:15 25.09502 -105.72394 30391 ft 397 kts 255°
2026-05-08 14:16 25.08243 -105.78324 30400 ft 397 kts 255°
2026-05-08 14:16 25.06996 -105.84216 30420 ft 396 kts 255°
2026-05-08 14:17 25.05855 -105.90165 30431 ft 396 kts 257°
2026-05-08 14:17 25.04803 -105.96130 30434 ft 396 kts 257°
2026-05-08 14:18 25.03739 -106.02045 30427 ft 394 kts 257°
2026-05-08 14:18 25.02661 -106.07968 30428 ft 394 kts 257°
2026-05-08 14:19 25.01586 -106.13845 30425 ft 393 kts 257°
2026-05-08 14:19 25.00502 -106.19747 30432 ft 393 kts 256°
2026-05-08 14:20 24.99419 -106.25665 30433 ft 393 kts 257°
2026-05-08 14:20 24.98332 -106.31536 30421 ft 392 kts 256°
2026-05-08 14:21 24.97245 -106.37431 30412 ft 392 kts 256°
2026-05-08 14:21 24.96160 -106.43282 30386 ft 393 kts 256°
2026-05-08 14:22 24.95069 -106.49174 30374 ft 392 kts 257°
2026-05-08 14:22 24.93975 -106.55058 30350 ft 392 kts 256°
2026-05-08 14:23 24.92884 -106.60937 30295 ft 392 kts 257°
2026-05-08 14:23 24.91787 -106.66821 30228 ft 392 kts 256°
2026-05-08 14:24 24.90692 -106.72677 30172 ft 392 kts 256°
2026-05-08 14:24 24.89584 -106.78580 30111 ft 392 kts 256°
2026-05-08 14:25 24.88481 -106.84445 30071 ft 392 kts 256°